timestamp,wind_dir_avg,wind_spd_avg,wind_spd_max_dir,wind_spd_gust,battery_voltage,lat,long
2021-01-22 00:04:01+00:00,4.0,11.56,6.0,13.23,12.25,47.59359,-54.27349
2021-01-22 00:14:01+00:00,2.0,12.14,0.0,14.39,12.25,47.59359,-54.27349
2021-01-22 00:24:01+00:00,5.0,12.18,2.0,13.66,12.25,47.59359,-54.27349
2021-01-22 00:34:01+00:00,4.0,12.56,3.0,14.88,12.25,47.59359,-54.27349
2021-01-22 00:44:01+00:00,6.0,12.56,16.0,14.95,12.25,47.59359,-54.27349
2021-01-22 00:54:01+00:00,3.0,11.38,359.0,13.84,12.25,47.59359,-54.27349
2021-01-22 01:04:01+00:00,357.0,10.59,350.0,12.32,12.25,47.59359,-54.27349
2021-01-22 01:14:01+00:00,349.0,11.42,340.0,13.14,12.25,47.59359,-54.27349
2021-01-22 01:24:01+00:00,349.0,11.37,338.0,12.95,12.25,47.59359,-54.27349
2021-01-22 01:34:01+00:00,347.0,10.89,346.0,12.24,12.25,47.59359,-54.27349
2021-01-22 01:44:01+00:00,343.0,11.55,342.0,13.01,12.25,47.59359,-54.27349
2021-01-22 01:54:01+00:00,345.0,13.65,344.0,15.27,12.25,47.59359,-54.27349
2021-01-22 02:04:01+00:00,345.0,12.19,349.0,13.95,12.25,47.59359,-54.27349
2021-01-22 02:14:01+00:00,339.0,9.36,348.0,11.4,12.25,47.59359,-54.27349
2021-01-22 02:24:01+00:00,336.0,10.01,330.0,11.37,12.25,47.59359,-54.27349
2021-01-22 02:34:01+00:00,332.0,11.25,328.0,13.11,12.25,47.59359,-54.27349
2021-01-22 02:44:01+00:00,338.0,10.85,335.0,13.76,12.25,47.59359,-54.27349
2021-01-22 02:54:01+00:00,334.0,10.95,335.0,12.52,12.25,47.59359,-54.27349
2021-01-22 03:04:01+00:00,342.0,12.07,338.0,13.99,12.25,47.59359,-54.27349
2021-01-22 03:14:01+00:00,337.0,11.64,336.0,12.99,12.25,47.59359,-54.27349
2021-01-22 03:24:01+00:00,340.0,10.89,345.0,12.92,12.25,47.59359,-54.27349
2021-01-22 03:34:01+00:00,341.0,11.07,338.0,14.49,12.25,47.59359,-54.27349
2021-01-22 03:44:01+00:00,340.0,13.0,339.0,15.98,12.25,47.59359,-54.27349
2021-01-22 03:54:01+00:00,342.0,11.9,344.0,15.09,12.25,47.59359,-54.27349
2021-01-22 04:04:01+00:00,342.0,12.45,344.0,14.88,12.25,47.59359,-54.27349
2021-01-22 04:14:01+00:00,336.0,12.81,333.0,14.7,12.25,47.59359,-54.27349
2021-01-22 04:24:01+00:00,330.0,12.06,322.0,14.08,12.25,47.59359,-54.27349
2021-01-22 04:34:01+00:00,333.0,13.48,330.0,15.1,12.25,47.59359,-54.27349
2021-01-22 04:44:01+00:00,336.0,11.85,334.0,13.16,12.25,47.59359,-54.27349
2021-01-22 04:54:01+00:00,339.0,12.17,329.0,14.04,12.25,47.59359,-54.27349
2021-01-22 05:04:01+00:00,331.0,12.17,334.0,14.31,12.25,47.59359,-54.27349
2021-01-22 05:14:01+00:00,332.0,11.47,335.0,12.96,12.25,47.59359,-54.27349
2021-01-22 05:24:01+00:00,324.0,10.93,325.0,13.65,12.25,47.59359,-54.27349
2021-01-22 05:34:01+00:00,331.0,13.14,334.0,14.95,12.25,47.59359,-54.27349
2021-01-22 05:44:01+00:00,330.0,11.76,323.0,14.3,12.25,47.59359,-54.27349
2021-01-22 05:54:01+00:00,329.0,12.83,331.0,16.18,12.25,47.59359,-54.27349
2021-01-22 06:04:01+00:00,327.0,11.93,341.0,13.55,12.25,47.59359,-54.27349
2021-01-22 06:14:01+00:00,320.0,12.7,316.0,17.22,12.25,47.59359,-54.27349
2021-01-22 06:24:01+00:00,320.0,12.6,314.0,18.33,12.25,47.59359,-54.27349
2021-01-22 06:34:01+00:00,320.0,13.56,311.0,16.88,12.25,47.59359,-54.27349
2021-01-22 06:44:01+00:00,316.0,14.84,313.0,17.4,12.25,47.59359,-54.27349
2021-01-22 06:54:01+00:00,318.0,12.41,315.0,15.04,12.25,47.59359,-54.27349
2021-01-22 07:04:01+00:00,319.0,12.71,303.0,16.97,12.25,47.59359,-54.27349
2021-01-22 07:14:01+00:00,318.0,11.94,304.0,15.15,12.25,47.59359,-54.27349
2021-01-22 07:24:01+00:00,322.0,13.15,317.0,16.15,12.25,47.59359,-54.27349
2021-01-22 07:34:01+00:00,313.0,14.11,313.0,18.07,12.25,47.59359,-54.27349
2021-01-22 07:44:01+00:00,319.0,15.01,314.0,19.58,12.25,47.59359,-54.27349
2021-01-22 07:54:01+00:00,320.0,13.98,314.0,19.86,12.25,47.59359,-54.27349
2021-01-22 08:04:01+00:00,319.0,13.39,314.0,19.05,12.25,47.59359,-54.27349
2021-01-22 08:14:01+00:00,320.0,13.17,320.0,15.71,12.17,47.59359,-54.27349
2021-01-22 08:24:01+00:00,313.0,12.32,307.0,15.85,12.17,47.59359,-54.27349
2021-01-22 08:34:01+00:00,313.0,14.24,315.0,17.73,12.17,47.59359,-54.27349
2021-01-22 08:44:01+00:00,321.0,12.0,322.0,13.4,12.17,47.59359,-54.27349
2021-01-22 08:54:01+00:00,320.0,13.44,318.0,16.87,12.17,47.59359,-54.27349
2021-01-22 09:04:01+00:00,317.0,14.32,316.0,17.78,12.17,47.59359,-54.27349
2021-01-22 09:14:01+00:00,322.0,13.54,313.0,17.6,12.25,47.59359,-54.27349
2021-01-22 09:24:01+00:00,315.0,11.58,307.0,14.05,12.25,47.59359,-54.27349
2021-01-22 09:34:01+00:00,309.0,11.14,304.0,14.48,12.25,47.59359,-54.27349
2021-01-22 09:44:01+00:00,307.0,11.99,303.0,16.85,12.25,47.59359,-54.27349
2021-01-22 09:54:01+00:00,309.0,13.92,303.0,16.46,12.25,47.59359,-54.27349
2021-01-22 10:04:01+00:00,308.0,15.72,305.0,17.76,12.25,47.59359,-54.27349
2021-01-22 10:14:01+00:00,308.0,13.77,304.0,15.96,12.25,47.59359,-54.27349
2021-01-22 10:24:01+00:00,307.0,12.86,304.0,15.78,12.25,47.59359,-54.27349
2021-01-22 10:34:01+00:00,302.0,13.66,299.0,15.58,12.25,47.59359,-54.27349
2021-01-22 10:44:01+00:00,305.0,14.06,308.0,17.74,12.25,47.59359,-54.27349
2021-01-22 10:54:01+00:00,296.0,12.2,296.0,15.31,12.25,47.59359,-54.27349
2021-01-22 11:04:01+00:00,295.0,11.21,291.0,15.02,12.25,47.59359,-54.27349
2021-01-22 11:14:01+00:00,289.0,11.2,290.0,15.55,12.17,47.59359,-54.27349
2021-01-22 11:24:01+00:00,285.0,11.74,286.0,14.92,12.17,47.59359,-54.27349
2021-01-22 11:34:01+00:00,290.0,10.72,291.0,14.79,12.17,47.59359,-54.27349
2021-01-22 11:44:01+00:00,284.0,11.56,283.0,14.58,12.17,47.59359,-54.27349
2021-01-22 11:54:01+00:00,280.0,10.57,279.0,14.39,12.17,47.59359,-54.27349
2021-01-22 12:04:01+00:00,282.0,12.15,286.0,14.66,12.17,47.59359,-54.27349
2021-01-22 12:14:01+00:00,281.0,11.82,283.0,14.72,13.84,47.59359,-54.27349
2021-01-22 12:24:01+00:00,288.0,9.26,277.0,14.36,13.84,47.59359,-54.27349
2021-01-22 12:34:01+00:00,283.0,9.97,281.0,14.37,13.84,47.59359,-54.27349
2021-01-22 12:44:01+00:00,281.0,9.07,278.0,13.86,13.84,47.59359,-54.27349
2021-01-22 12:54:01+00:00,279.0,11.89,281.0,14.57,13.84,47.59359,-54.27349
2021-01-22 13:04:01+00:00,285.0,11.06,285.0,14.94,13.84,47.59359,-54.27349
2021-01-22 13:14:01+00:00,282.0,11.32,282.0,14.8,14.4,47.59359,-54.27349
2021-01-22 13:24:01+00:00,279.0,10.14,283.0,14.85,14.4,47.59359,-54.27349
2021-01-22 13:34:01+00:00,280.0,10.97,283.0,14.25,14.4,47.59359,-54.27349
2021-01-22 13:44:01+00:00,280.0,9.51,285.0,14.43,14.4,47.59359,-54.27349
2021-01-22 13:54:01+00:00,289.0,11.2,289.0,15.29,14.4,47.59359,-54.27349
2021-01-22 14:04:01+00:00,285.0,8.5,284.0,12.01,14.4,47.59359,-54.27349
2021-01-22 14:14:01+00:00,290.0,10.42,292.0,15.11,14.0,47.59359,-54.27349
2021-01-22 14:24:01+00:00,284.0,12.96,288.0,15.16,14.0,47.59359,-54.27349
2021-01-22 14:34:01+00:00,285.0,11.37,283.0,14.85,14.0,47.59359,-54.27349
2021-01-22 14:44:01+00:00,295.0,8.4,298.0,9.86,14.0,47.59359,-54.27349
2021-01-22 14:54:01+00:00,284.0,10.85,281.0,14.61,14.0,47.59359,-54.27349
2021-01-22 15:04:01+00:00,289.0,8.4,297.0,11.65,14.0,47.59359,-54.27349
2021-01-22 15:14:01+00:00,277.0,9.02,281.0,11.54,14.4,47.59359,-54.27349
2021-01-22 15:24:01+00:00,273.0,7.9,269.0,9.64,14.4,47.59359,-54.27349
2021-01-22 15:34:01+00:00,269.0,8.8,268.0,10.13,14.4,47.59359,-54.27349
2021-01-22 15:44:01+00:00,281.0,7.45,284.0,9.2,14.4,47.59359,-54.27349
2021-01-22 15:54:01+00:00,281.0,7.32,286.0,8.26,14.4,47.59359,-54.27349
2021-01-22 16:04:01+00:00,275.0,7.47,267.0,9.11,14.4,47.59359,-54.27349
2021-01-22 16:14:01+00:00,278.0,8.04,276.0,9.35,13.92,47.59359,-54.27349
2021-01-22 16:24:01+00:00,279.0,9.64,283.0,10.89,13.92,47.59359,-54.27349
2021-01-22 16:34:01+00:00,276.0,9.43,277.0,10.75,13.92,47.59359,-54.27349
2021-01-22 16:44:01+00:00,280.0,7.3,285.0,8.41,13.92,47.59359,-54.27349
2021-01-22 16:54:01+00:00,276.0,8.93,271.0,10.8,13.92,47.59359,-54.27349
2021-01-22 17:04:01+00:00,277.0,9.31,274.0,10.88,13.92,47.59359,-54.27349
2021-01-22 17:14:01+00:00,274.0,7.83,270.0,9.15,14.32,47.59359,-54.27349
2021-01-22 17:24:01+00:00,277.0,8.24,278.0,10.82,14.32,47.59359,-54.27349
2021-01-22 17:34:01+00:00,279.0,9.78,280.0,11.07,14.32,47.59359,-54.27349
2021-01-22 17:44:01+00:00,272.0,8.26,273.0,9.4,14.32,47.59359,-54.27349
2021-01-22 17:54:01+00:00,274.0,8.97,276.0,10.91,14.32,47.59359,-54.27349
2021-01-22 18:04:01+00:00,270.0,9.57,267.0,10.65,14.32,47.59359,-54.27349
2021-01-22 18:14:01+00:00,285.0,8.2,286.0,9.66,14.32,47.59359,-54.27349
2021-01-22 18:24:01+00:00,285.0,7.72,289.0,8.86,14.32,47.59359,-54.27349
2021-01-22 18:34:01+00:00,282.0,7.64,272.0,9.33,14.32,47.59359,-54.27349
2021-01-22 18:44:01+00:00,282.0,6.71,285.0,8.24,14.32,47.59359,-54.27349
2021-01-22 18:54:01+00:00,288.0,6.47,288.0,7.95,14.32,47.59359,-54.27349
2021-01-22 19:04:01+00:00,276.0,5.91,275.0,7.63,14.32,47.59359,-54.27349
2021-01-22 19:14:01+00:00,269.0,4.42,271.0,5.0,14.24,47.59359,-54.27349
2021-01-22 19:24:01+00:00,287.0,4.95,292.0,6.04,14.24,47.59359,-54.27349
2021-01-22 19:34:01+00:00,271.0,6.8,272.0,7.77,14.24,47.59359,-54.27349
2021-01-22 19:44:01+00:00,273.0,6.9,270.0,8.37,14.24,47.59359,-54.27349
2021-01-22 19:54:01+00:00,266.0,6.51,267.0,7.87,14.24,47.59359,-54.27349
2021-01-22 20:04:01+00:00,288.0,5.79,294.0,6.51,14.24,47.59359,-54.27349
2021-01-22 20:14:01+00:00,273.0,6.74,273.0,8.53,13.29,47.59359,-54.27349
2021-01-22 20:24:01+00:00,282.0,5.45,272.0,6.13,13.29,47.59359,-54.27349
2021-01-22 20:34:01+00:00,291.0,6.16,284.0,6.91,13.29,47.59359,-54.27349
2021-01-22 20:44:01+00:00,299.0,5.3,304.0,6.29,13.29,47.59359,-54.27349
2021-01-22 20:54:01+00:00,303.0,5.4,306.0,6.11,13.29,47.59359,-54.27349
2021-01-22 21:04:01+00:00,298.0,4.8,288.0,7.46,13.29,47.59359,-54.27349
2021-01-22 21:14:01+00:00,318.0,6.1,319.0,7.33,12.65,47.59359,-54.27349
2021-01-22 21:24:01+00:00,317.0,6.24,316.0,7.17,12.65,47.59359,-54.27349
2021-01-22 21:34:01+00:00,309.0,6.86,310.0,7.94,12.65,47.59359,-54.27349
2021-01-22 21:44:01+00:00,328.0,6.67,335.0,8.2,12.65,47.59359,-54.27349
2021-01-22 21:54:01+00:00,309.0,5.89,308.0,7.03,12.65,47.59359,-54.27349
2021-01-22 22:04:01+00:00,314.0,7.56,315.0,9.02,12.65,47.59359,-54.27349
2021-01-22 22:14:01+00:00,321.0,6.25,323.0,7.96,12.57,47.59359,-54.27349
2021-01-22 22:24:01+00:00,310.0,5.3,316.0,6.41,12.57,47.59359,-54.27349
2021-01-22 22:34:01+00:00,305.0,5.69,309.0,7.4,12.57,47.59359,-54.27349
2021-01-22 22:44:01+00:00,318.0,5.31,324.0,6.12,12.57,47.59359,-54.27349
2021-01-22 22:54:01+00:00,284.0,4.46,277.0,5.91,12.57,47.59359,-54.27349
2021-01-22 23:04:01+00:00,281.0,4.57,281.0,5.45,12.57,47.59359,-54.27349
2021-01-22 23:14:01+00:00,270.0,3.95,271.0,4.58,12.57,47.59359,-54.27349
2021-01-22 23:24:01+00:00,266.0,3.56,257.0,4.56,12.57,47.59359,-54.27349
2021-01-22 23:34:01+00:00,265.0,4.53,264.0,5.4,12.57,47.59359,-54.27349
2021-01-22 23:44:01+00:00,247.0,3.75,255.0,4.41,12.57,47.59359,-54.27349
2021-01-22 23:54:01+00:00,279.0,4.65,275.0,5.34,12.57,47.59359,-54.27349
